| time (UTC) | temp F | wind direction | speed MPH | gust MPH | rain 1hr in | rain 24hr in | rain mn in | humidity % | barometer mb |
| 20260506123014 | 61 | 247 | 0.0 | 1.0 | 0.00 | 0.00 | 0.00 | 74 | 1001.3 |
| 20260506121516 | 62 | 247 | 2.0 | 3.0 | 0.00 | 0.00 | 0.00 | 70 | 1001.3 |
| 20260506120014 | 67 | 225 | 0.0 | 0.0 | 0.00 | 0.00 | 0.00 | 61 | 1001.0 |
| 20260506114514 | 67 | 180 | 0.0 | 0.0 | 0.00 | 0.00 | 0.00 | 59 | 1001.1 |
| 20260506113013 | 65 | 225 | 0.0 | 1.0 | 0.00 | 0.00 | 0.00 | 63 | 1001.1 |
| 20260506111514 | 64 | 247 | 0.0 | 1.0 | 0.00 | 0.00 | 0.00 | 65 | 1001.2 |
| 20260506110014 | 62 | 247 | 0.0 | 1.0 | 0.00 | 0.00 | 0.00 | 68 | 1001.3 |
| 20260506104513 | 62 | 225 | 0.0 | 1.0 | 0.00 | 0.00 | 0.00 | 68 | 1001.3 |
| 20260506103014 | 63 | 225 | 0.0 | 1.0 | 0.00 | 0.00 | 0.00 | 68 | 1001.4 |
| 20260506101514 | 62 | 225 | 0.0 | 1.0 | 0.00 | 0.00 | 0.00 | 70 | 1001.5 |
| 20260506100014 | 62 | 225 | 0.0 | 0.0 | 0.00 | 0.00 | 0.00 | 73 | 1001.4 |
| 20260506094513 | 62 | 225 | 1.0 | 1.0 | 0.00 | 0.00 | 0.00 | 70 | 1001.2 |
| 20260506093014 | 61 | 247 | 1.0 | 1.0 | 0.00 | 0.00 | 0.00 | 71 | 1001.2 |
| 20260506091514 | 59 | 225 | 0.0 | 1.0 | 0.00 | 0.00 | 0.00 | 78 | 1001.2 |
| 20260506090014 | 59 | 225 | 0.0 | 1.0 | 0.00 | 0.00 | 0.00 | 76 | 1001.3 |
| 20260506084514 | 59 | 247 | 0.0 | 1.0 | 0.00 | 0.00 | 0.00 | 77 | 1001.1 |
| 20260506083014 | 58 | 225 | 1.0 | 1.0 | 0.00 | 0.00 | 0.00 | 78 | 1001.1 |
| 20260506081513 | 58 | 247 | 0.0 | 1.0 | 0.00 | 0.00 | 0.00 | 81 | 1000.9 |
| 20260506073014 | 55 | 225 | 0.0 | 1.0 | 0.00 | 0.00 | 0.00 | 85 | 1001.0 |
| 20260506071514 | 55 | 270 | 1.0 | 2.0 | 0.00 | 0.00 | 0.00 | 86 | 1000.7 |
| 20260506061514 | 55 | 247 | 0.0 | 2.0 | 0.00 | 0.00 | 0.00 | 87 | 1000.8 |
| 20260506044514 | 54 | 202 | 1.0 | 3.0 | 0.00 | 0.00 | 0.00 | 90 | 1000.1 |
| 20260506043014 | 54 | 225 | 1.0 | 3.0 | 0.00 | 0.00 | 0.00 | 90 | 1000.0 |
| 20260506041513 | 54 | 225 | 2.0 | 3.0 | 0.00 | 0.00 | 0.00 | 90 | 999.9 |
| 20260506040013 | 54 | 225 | 1.0 | 2.0 | 0.00 | 0.00 | 0.00 | 90 | 999.8 |
| 20260506034514 | 54 | 202 | 1.0 | 1.0 | 0.00 | 0.00 | 0.00 | 90 | 999.8 |
| 20260506033014 | 54 | 202 | 0.0 | 0.0 | 0.00 | 0.00 | 0.00 | 90 | 999.8 |
| 20260506031513 | 55 | 202 | 1.0 | 1.0 | 0.00 | 0.00 | 0.00 | 90 | 999.8 |
| 20260506030013 | 55 | 202 | 0.0 | 0.0 | 0.00 | 0.00 | 0.00 | 90 | 1000.0 |
| 20260506024514 | 54 | 202 | 0.0 | 0.0 | 0.00 | 0.00 | 0.00 | 90 | 1000.0 |
| 20260506023014 | 54 | 202 | 0.0 | 0.0 | 0.00 | 0.00 | 0.00 | 89 | 999.8 |
| 20260506021514 | 54 | 202 | 0.0 | 0.0 | 0.00 | 0.00 | 0.00 | 89 | 1000.0 |
| 20260506020013 | 54 | 202 | 0.0 | 0.0 | 0.00 | 0.00 | 0.00 | 89 | 999.9 |
| 20260506014513 | 54 | 202 | 0.0 | 0.0 | 0.00 | 0.00 | 0.00 | 89 | 1000.0 |
| 20260506013013 | 54 | 202 | 0.0 | 0.0 | 0.00 | 0.00 | 0.00 | 89 | 1000.2 |
| 20260506011514 | 54 | 180 | 0.0 | 0.0 | 0.00 | 0.00 | 0.00 | 89 | 1000.2 |
| 20260506010014 | 54 | 202 | 0.0 | 0.0 | 0.00 | 0.00 | 0.00 | 89 | 1000.2 |
| 20260506004513 | 55 | 180 | 0.0 | 1.0 | 0.00 | 0.00 | 0.00 | 89 | 1000.5 |
| 20260506003013 | 55 | 180 | 1.0 | 1.0 | 0.00 | 0.00 | 0.00 | 89 | 1000.7 |
| 20260506001514 | 55 | 180 | 0.0 | 0.0 | 0.00 | 0.00 | 0.00 | 88 | 1000.8 |
| 20260506000015 | 55 | 135 | 0.0 | 1.0 | 0.00 | 0.00 | 0.00 | 88 | 1001.0 |
| 20260505234513 | 55 | 135 | 0.0 | 0.0 | 0.00 | 0.00 | 0.00 | 88 | 1001.1 |
| 20260505233013 | 55 | 157 | 0.0 | 1.0 | 0.00 | 0.00 | 0.00 | 88 | 1001.2 |
| 20260505231513 | 55 | 112 | 1.0 | 2.0 | 0.00 | 0.00 | 0.00 | 88 | 1001.2 |
| 20260505230013 | 55 | 112 | 1.0 | 2.0 | 0.00 | 0.00 | 0.00 | 88 | 1001.5 |
| 20260505224513 | 56 | 135 | 1.0 | 1.0 | 0.00 | 0.00 | 0.00 | 88 | 1001.4 |
| 20260505223013 | 56 | 337 | 1.0 | 2.0 | 0.00 | 0.00 | 0.00 | 88 | 1001.3 |
| 20260505221513 | 56 | 315 | 0.0 | 0.0 | 0.00 | 0.00 | 0.00 | 88 | 1001.3 |
| 20260505220014 | 56 | 315 | 0.0 | 0.0 | 0.00 | 0.00 | 0.00 | 88 | 1001.6 |
| 20260505214513 | 56 | 315 | 0.0 | 1.0 | 0.00 | 0.00 | 0.00 | 88 | 1001.8 |
| 20260505213013 | 57 | 315 | 0.0 | 0.0 | 0.00 | 0.00 | 0.00 | 87 | 1002.3 |
| 20260505211514 | 57 | 315 | 0.0 | 0.0 | 0.00 | 0.00 | 0.00 | 87 | 1002.6 |
| 20260505210013 | 57 | 337 | 0.0 | 0.0 | 0.00 | 0.00 | 0.00 | 86 | 1002.3 |
| 20260505204514 | 58 | 337 | 0.0 | 0.0 | 0.00 | 0.00 | 0.00 | 85 | 1002.4 |
| 20260505203013 | 58 | 337 | 0.0 | 0.0 | 0.00 | 0.00 | 0.00 | 84 | 1002.6 |
| 20260505201514 | 58 | 337 | 0.0 | 0.0 | 0.00 | 0.00 | 0.00 | 83 | 1002.6 |
| 20260505200013 | 59 | 22 | 0.0 | 1.0 | 0.00 | 0.00 | 0.00 | 79 | 1002.1 |
| 20260505194513 | 60 | 315 | 0.0 | 1.0 | 0.00 | 0.00 | 0.00 | 77 | 1001.8 |
| 20260505193013 | 59 | 0 | 1.0 | 2.0 | 0.00 | 0.00 | 0.00 | 76 | 1001.5 |
| 20260505191513 | 60 | 337 | 1.0 | 1.0 | 0.00 | 0.00 | 0.00 | 74 | 1001.5 |
| 20260505190013 | 60 | 337 | 0.0 | 0.0 | 0.00 | 0.00 | 0.00 | 74 | 1001.7 |
| 20260505184513 | 60 | 0 | 0.0 | 1.0 | 0.00 | 0.00 | 0.00 | 75 | 1001.9 |
| 20260505183016 | 60 | 0 | 0.0 | 1.0 | 0.00 | 0.00 | 0.00 | 75 | 1001.8 |
| 20260505181513 | 61 | 337 | 1.0 | 1.0 | 0.00 | 0.00 | 0.00 | 74 | 1001.8 |
| 20260505180013 | 62 | 0 | 0.0 | 1.0 | 0.00 | 0.00 | 0.00 | 73 | 1002.1 |
| 20260505174512 | 62 | 0 | 1.0 | 1.0 | 0.00 | 0.00 | 0.00 | 71 | 1002.4 |
| 20260505173013 | 62 | 0 | 0.0 | 1.0 | 0.00 | 0.00 | 0.00 | 71 | 1002.2 |
| 20260505171513 | 63 | 0 | 0.0 | 1.0 | 0.00 | 0.00 | 0.00 | 71 | 1002.3 |
| 20260505170013 | 63 | 337 | 1.0 | 1.0 | 0.00 | 0.00 | 0.00 | 70 | 1002.5 |
| 20260505164513 | 64 | 0 | 0.0 | 1.0 | 0.00 | 0.00 | 0.00 | 70 | 1002.4 |
| 20260505163013 | 64 | 0 | 1.0 | 2.0 | 0.00 | 0.00 | 0.00 | 68 | 1002.7 |
| 20260505161513 | 64 | 0 | 1.0 | 1.0 | 0.00 | 0.00 | 0.00 | 67 | 1002.6 |
| 20260505153013 | 64 | 0 | 1.0 | 2.0 | 0.00 | 0.00 | 0.00 | 62 | 1003.1 |
| 20260505151513 | 64 | 0 | 1.0 | 1.0 | 0.00 | 0.00 | 0.00 | 64 | 1003.1 |
| 20260505124513 | 64 | 337 | 0.0 | 1.0 | 0.00 | 0.00 | 0.00 | 69 | 1004.3 |